Location: Praha
(50.0830°N, 14.4670°E)
Time: 14:49:59
(UTC+01:00)

ISS - Pass Details

Date: 06 December 2018
Orbit: 401 x 408 km, 51.6° (Epoch: 12 December)

Event Time Altitude Azimuth Distance (km) Brightness Sun altitude
Rises 19:20:04 0° 287° (WNW) 2,319 1.1 -30.9°
Reaches altitude 10° 19:22:14 10° 279° (W) 1,456 -0.2 -31.2°
Enters shadow 19:22:24 11° 278° (W) 1,396 -0.3 -31.3°
